Regional Weather Roundup
Issued by NWS

Home | Current Version | Previous Version | Graphics & Text | Print | Product List | Glossary Off
Versions: 1 2 3 4 5 6 7 8 9 10 11 12 13 14 15 16 17 18 19 20 21 22 23 24 25 26 27 28 29 30 31 32 33 34 35 36 37 38 39 40 41 42 43 44 45 46 47 48 49 50

674
ASUS43 KDTX 210510
RWRMI
MICHIGAN HOURLY REGIONAL WEATHER ROUNDUP
NATIONAL WEATHER SERVICE DETROIT/PONTIAC MI
ISSUED BY NATIONAL WEATHER SERVICE GRAND RAPIDS MI
100 AM EDT MON AUG 21 2017

NOTE: "FAIR" INDICATES FEW OR NO CLOUDS BELOW 12,000 FEET WITH NO
SIGNIFICANT WEATHER AND/OR OBSTRUCTION TO VISIBILITY.

MIZ047>049-052>055-059>063-066>070-074>076-081>083-210600-
SOUTHEAST LOWER MICHIGAN

CITY           SKY/WX    TMP DP  RH WIND       PRES   REMARKS
ADRIAN         CLOUDY    72  68  87 CALM      30.10S
ALMA           CLOUDY    64  62  93 S6        30.08R
ANN ARBOR      MOCLDY    69  67  93 CALM      30.09S
BAD AXE        CLEAR     63  60  88 CALM      30.08R
DETROIT CITY   CLOUDY    73  64  73 CALM      30.09S
DETROIT        CLOUDY    74  70  87 CALM      30.10S
FLINT          PTCLDY    69  63  81 S6        30.08S
GROSSE ILE     CLOUDY    73  69  87 CALM      30.08S
HILLSDALE      CLOUDY    64  63  94 CALM      30.11R FOG
HOWELL         PTCLDY    71  64  80 S3        30.10S

CITY           SKY/WX    TMP DP  RH WIND       PRES   REMARKS
JACKSON        CLOUDY    67  64  90 SW3       30.10R
LANSING        CLEAR     67  61  81 CALM      30.09R
MASON          CLEAR     69  64  84 E6        30.09S
MONROE         MOCLDY    72  70  93 CALM      30.07F
MT. CLEMENS    CLOUDY    71  68  92 S5        30.08R
PONTIAC        CLOUDY    72  64  76 CALM      30.09R
PORT HOPE        N/A     68  61  78 CALM      30.04S
PORT HURON     CLOUDY    64  61  88 CALM      30.09S
TRI CITIES     MOCLDY    70  64  81 SW5       30.07R
YPSILANTI      PTCLDY    74  70  87 CALM      30.10R
$$
MIZ043>046-050>051-056>058-064>065-071>073-077>080-210600-
SOUTHWEST LOWER MICHIGAN

CITY           SKY/WX    TMP DP  RH WIND       PRES   REMARKS
BATTLE CREEK   CLOUDY    72  65  78 S3        30.09S
BENTON HARBOR  CLOUDY    75  65  70 CALM      30.06R
BIG RAPIDS     PTCLDY    61  59  92 CALM      30.07R
COLDWATER      CLOUDY    65  65 100 SE3       30.10S
HOLLAND        CLOUDY    71  66  84 CALM      30.07R
GRAND RAPIDS   CLOUDY    70  67  90 SE3       30.07R
KALAMAZOO      CLOUDY    74  64  71 S3        30.08S
MARSHALL       CLOUDY    64  64  97 CALM      30.09S
MOUNT PLEASANT CLOUDY    66  64  91 CALM      30.06S
MUSKEGON       CLOUDY    70  64  81 SE3       30.06R
STURGIS        CLOUDY    67  65  92 CALM      30.09R
$$
MIZ016>042-210600-
NORTHERN LOWER MICHIGAN

CITY           SKY/WX    TMP DP  RH WIND       PRES   REMARKS
ALPENA         CLEAR     70  63  78 S5        30.02S
BEAVER ISLAND  CLEAR     70  66  87 SW13G21   29.99R
BELLAIRE       CLEAR     67  62  85 CALM      30.02R
CADILLAC       PTCLDY    67  61  81 SW6       30.07S
CHARLEVOIX     CLEAR     72  62  71 SW9       30.04R
GAYLORD        CLEAR     67  59  75 SW9       30.05R
HOUGHTON LAKE  CLEAR     70  62  76 SW8       30.07R
MANISTEE       MOCLDY    66  63  90 CALM      30.04R
OSCODA         PTCLDY    68  61  77 CALM      30.04R
PELLSTON       CLEAR     72  62  71 SW9       30.00R
TRAVERSE CITY  MOCLDY    73  61  65 CALM      30.01R
LUDINGTON      CLEAR     73  62  70 SW7       30.04S
$$
MIZ007>008-015-210600-
EASTERN UPPER MICHIGAN

CITY           SKY/WX    TMP DP  RH WIND       PRES   REMARKS
KINROSS        PTCLDY    67  63  87 SW3       29.99R
MACKINAC ISLAN PTCLDY    71  63  76 SW9       29.98S
NEWBERRY       CLOUDY    67  66  97 SW6       29.98R
S. S. MARIE    MOCLDY    70  63  78 SW7       29.97R
$$
MIZ004>006-011>014-085-210600-
CENTRAL UPPER MICHIGAN

CITY           SKY/WX    TMP DP  RH WIND       PRES   REMARKS
MANISTIQUE     MOCLDY    67  61  81 CALM      29.98R
ESCANABA       CLOUDY    70  68  93 SW3       29.99R
MENOMINEE      CLOUDY    72  67  84 W6        30.01R
SAWYER-GWINN   CLOUDY    70  62  77 CALM      30.01R
$$
MIZ001>003-009>011-084-210600-
WESTERN UPPER MICHIGAN

CITY           SKY/WX    TMP DP  RH WIND       PRES   REMARKS
IRON MOUNTAIN  CLOUDY    70  65  84 S3        30.00R
HOUGHTON       PTCLDY    65  58  78 W12       29.97R
COPPER HARBOR    N/A     71  53  52 NW7       29.93S
IRONWOOD       FOG       58  57  97 W3        30.03S VSB 1/2
$$

ABBREVIATIONS USED IN REMARKS
   TC - TEMPERATURE IN CELSIUS
  WCI - WIND CHILL INDEX
   HX - HEAT INDEX
  VSB - VISIBILITY





USA.gov is the U.S. government's official web portal to all federal, state and local government web resources and services.